Year,Month,Day,Hour,Minute,Value (Times are PST for temperature in C)
2016,08,24,00,00,17.30
2016,08,24,00,01,17.30
2016,08,24,00,02,17.30
2016,08,24,00,03,17.30
2016,08,24,00,04,17.30
2016,08,24,00,05,17.30
2016,08,24,00,06,17.30
2016,08,24,00,07,17.30
2016,08,24,00,08,17.30
2016,08,24,00,09,17.30
2016,08,24,00,10,17.30
2016,08,24,00,11,17.30
2016,08,24,00,12,17.30
2016,08,24,00,13,17.30
2016,08,24,00,14,17.30
2016,08,24,00,15,17.30
2016,08,24,00,16,17.30
2016,08,24,00,17,17.30
2016,08,24,00,18,17.30
2016,08,24,00,19,17.30
2016,08,24,00,20,17.30
2016,08,24,00,21,17.30
2016,08,24,00,22,17.30
2016,08,24,00,23,17.30
2016,08,24,00,24,17.30
2016,08,24,00,25,17.30
2016,08,24,00,26,17.30
2016,08,24,00,27,17.20
2016,08,24,00,28,17.20
2016,08,24,00,29,17.20
2016,08,24,00,30,17.20
2016,08,24,00,31,17.20
2016,08,24,00,32,17.20
2016,08,24,00,33,17.20
2016,08,24,00,34,17.20
2016,08,24,00,35,17.20
2016,08,24,00,36,17.20
2016,08,24,00,37,17.10
2016,08,24,00,38,17.10
2016,08,24,00,39,17.10
2016,08,24,00,40,17.10
2016,08,24,00,41,17.10
2016,08,24,00,42,17.10
2016,08,24,00,43,17.10
2016,08,24,00,44,17.10
2016,08,24,00,45,17.10
2016,08,24,00,46,17.00
2016,08,24,00,47,17.00
2016,08,24,00,48,17.00
2016,08,24,00,49,17.00
2016,08,24,00,50,17.00
2016,08,24,00,51,17.00
2016,08,24,00,52,17.00
2016,08,24,00,53,17.00
2016,08,24,00,54,17.00
2016,08,24,00,55,17.00
2016,08,24,00,56,17.00
2016,08,24,00,57,17.00
2016,08,24,00,58,17.00
2016,08,24,00,59,17.00
2016,08,24,01,00,17.00
2016,08,24,01,01,17.00
2016,08,24,01,02,16.90
2016,08,24,01,03,16.90
2016,08,24,01,04,16.90
2016,08,24,01,05,16.90
2016,08,24,01,06,16.90
2016,08,24,01,07,16.90
2016,08,24,01,08,16.80
2016,08,24,01,09,16.80
2016,08,24,01,10,16.80
2016,08,24,01,11,16.70
2016,08,24,01,12,16.70
2016,08,24,01,13,16.70
2016,08,24,01,14,16.70
2016,08,24,01,15,16.60
2016,08,24,01,16,16.60
2016,08,24,01,17,16.60
2016,08,24,01,18,16.60
2016,08,24,01,19,16.60
2016,08,24,01,20,16.60
2016,08,24,01,21,16.60
2016,08,24,01,22,16.50
2016,08,24,01,23,16.50
2016,08,24,01,24,16.50
2016,08,24,01,25,16.40
2016,08,24,01,26,16.40
2016,08,24,01,27,16.40
2016,08,24,01,28,16.30
2016,08,24,01,29,16.30
2016,08,24,01,30,16.30
2016,08,24,01,31,16.30
2016,08,24,01,32,16.30
2016,08,24,01,33,16.20
2016,08,24,01,34,16.20
2016,08,24,01,35,16.20
2016,08,24,01,36,16.20
2016,08,24,01,37,16.20
2016,08,24,01,38,16.20
2016,08,24,01,39,16.20
2016,08,24,01,40,16.20
2016,08,24,01,41,16.20
2016,08,24,01,42,16.20
2016,08,24,01,43,16.20
2016,08,24,01,44,16.20
2016,08,24,01,45,16.20
2016,08,24,01,46,16.20
2016,08,24,01,47,16.20
2016,08,24,01,48,16.20
2016,08,24,01,49,16.20
2016,08,24,01,50,16.20
2016,08,24,01,51,16.20
2016,08,24,01,52,16.20
2016,08,24,01,53,16.20
2016,08,24,01,54,16.20
2016,08,24,01,55,16.20
2016,08,24,01,56,16.20
2016,08,24,01,57,16.20
2016,08,24,01,58,16.20
2016,08,24,01,59,16.20
2016,08,24,02,00,16.20
2016,08,24,02,01,16.20
2016,08,24,02,02,16.20
2016,08,24,02,03,16.20
2016,08,24,02,04,16.20
2016,08,24,02,05,16.20
2016,08,24,02,06,16.20
2016,08,24,02,07,16.20
2016,08,24,02,08,16.20
2016,08,24,02,09,16.20
2016,08,24,02,10,16.20
2016,08,24,02,11,16.20
2016,08,24,02,12,16.20
2016,08,24,02,13,16.20
2016,08,24,02,14,16.20
2016,08,24,02,15,16.20
2016,08,24,02,16,16.20
2016,08,24,02,17,16.20
2016,08,24,02,18,16.20
2016,08,24,02,19,16.20
2016,08,24,02,20,16.20
2016,08,24,02,21,16.20
2016,08,24,02,22,16.30
2016,08,24,02,23,16.30
2016,08,24,02,24,16.20
2016,08,24,02,25,16.20
2016,08,24,02,26,16.20
2016,08,24,02,27,16.20
2016,08,24,02,28,16.20
2016,08,24,02,29,16.20
2016,08,24,02,30,16.20
2016,08,24,02,31,16.20
2016,08,24,02,32,16.00
2016,08,24,02,33,15.90
2016,08,24,02,34,15.90
2016,08,24,02,35,15.90
2016,08,24,02,36,15.90
2016,08,24,02,37,15.80
2016,08,24,02,38,15.80
2016,08,24,02,39,15.80
2016,08,24,02,40,15.80
2016,08,24,02,41,15.80
2016,08,24,02,42,15.80
2016,08,24,02,43,15.80
2016,08,24,02,44,15.90
2016,08,24,02,45,15.90
2016,08,24,02,46,15.90
2016,08,24,02,47,15.90
2016,08,24,02,48,15.90
2016,08,24,02,49,15.90
2016,08,24,02,50,15.90
2016,08,24,02,51,15.90
2016,08,24,02,52,15.90
2016,08,24,02,53,15.90
2016,08,24,02,54,15.90
2016,08,24,02,55,15.80
2016,08,24,02,56,15.80
2016,08,24,02,57,15.80
2016,08,24,02,58,15.80
2016,08,24,02,59,15.80
2016,08,24,03,00,15.90
2016,08,24,03,01,15.90
2016,08,24,03,02,15.90
2016,08,24,03,03,15.90
2016,08,24,03,04,15.90
2016,08,24,03,05,15.90
2016,08,24,03,06,15.90
2016,08,24,03,07,15.90
2016,08,24,03,08,15.90
2016,08,24,03,09,15.90
2016,08,24,03,10,15.90
2016,08,24,03,11,15.90
2016,08,24,03,12,15.80
2016,08,24,03,13,15.80
2016,08,24,03,14,15.80
2016,08,24,03,15,15.80
2016,08,24,03,16,15.80
2016,08,24,03,17,15.70
2016,08,24,03,18,15.70
2016,08,24,03,19,15.70
2016,08,24,03,20,15.70
2016,08,24,03,21,15.70
2016,08,24,03,22,15.70
2016,08,24,03,23,15.70
2016,08,24,03,24,15.70
2016,08,24,03,25,15.70
2016,08,24,03,26,15.60
2016,08,24,03,27,15.60
2016,08,24,03,28,15.60
2016,08,24,03,29,15.60
2016,08,24,03,30,15.60
2016,08,24,03,31,15.60
2016,08,24,03,32,15.60
2016,08,24,03,33,15.60
2016,08,24,03,34,15.60
2016,08,24,03,35,15.60
2016,08,24,03,36,15.60
2016,08,24,03,37,15.60
2016,08,24,03,38,15.60
2016,08,24,03,39,15.70
2016,08,24,03,40,15.70
2016,08,24,03,41,15.70
2016,08,24,03,42,15.70
2016,08,24,03,43,15.70
2016,08,24,03,44,15.70
2016,08,24,03,45,15.70
2016,08,24,03,46,15.70
2016,08,24,03,47,15.70
2016,08,24,03,48,15.60
2016,08,24,03,49,15.60
2016,08,24,03,50,15.60
2016,08,24,03,51,15.60
2016,08,24,03,52,15.60
2016,08,24,03,53,15.60
2016,08,24,03,54,15.60
2016,08,24,03,55,15.60
2016,08,24,03,56,15.60
2016,08,24,03,57,15.60
2016,08,24,03,58,15.60
2016,08,24,03,59,15.70
2016,08,24,04,00,15.70
2016,08,24,04,01,15.70
2016,08,24,04,02,15.70
2016,08,24,04,03,15.70
2016,08,24,04,04,15.70
2016,08,24,04,05,15.70
2016,08,24,04,06,15.70
2016,08,24,04,07,15.60
2016,08,24,04,08,15.60
2016,08,24,04,09,15.60
2016,08,24,04,10,15.60
2016,08,24,04,11,15.60
2016,08,24,04,12,15.60
2016,08,24,04,13,15.60
2016,08,24,04,14,15.60
2016,08,24,04,15,15.50
2016,08,24,04,16,15.50
2016,08,24,04,17,15.50
2016,08,24,04,18,15.40
2016,08,24,04,19,15.40
2016,08,24,04,20,15.40
2016,08,24,04,21,15.40
2016,08,24,04,22,15.40
2016,08,24,04,23,15.40
2016,08,24,04,24,15.40
2016,08,24,04,25,15.40
2016,08,24,04,26,15.40
2016,08,24,04,27,15.40
2016,08,24,04,28,15.40
2016,08,24,04,29,15.40
2016,08,24,04,30,15.40
2016,08,24,04,31,15.40
2016,08,24,04,32,15.40
2016,08,24,04,33,15.40
2016,08,24,04,34,15.40
2016,08,24,04,35,15.40
2016,08,24,04,36,15.50
2016,08,24,04,37,15.50
2016,08,24,04,38,15.50
2016,08,24,04,39,15.50
2016,08,24,04,40,15.50
2016,08,24,04,41,15.50
2016,08,24,04,42,15.50
2016,08,24,04,43,15.50
2016,08,24,04,44,15.50
2016,08,24,04,45,15.50
2016,08,24,04,46,15.50
2016,08,24,04,47,15.50
2016,08,24,04,48,15.50
2016,08,24,04,49,15.50
2016,08,24,04,50,15.50
2016,08,24,04,51,15.50
2016,08,24,04,52,15.50
2016,08,24,04,53,15.40
2016,08,24,04,54,15.40
2016,08,24,04,55,15.40
2016,08,24,04,56,15.40
2016,08,24,04,57,15.40
2016,08,24,04,58,15.40
2016,08,24,04,59,15.40
2016,08,24,05,00,15.40
2016,08,24,05,01,15.30
2016,08,24,05,02,15.30
2016,08,24,05,03,15.30
2016,08,24,05,04,15.30
2016,08,24,05,05,15.30
2016,08,24,05,06,15.30
2016,08,24,05,07,15.30
2016,08,24,05,08,15.30
2016,08,24,05,09,15.30
2016,08,24,05,10,15.30
2016,08,24,05,11,15.30
2016,08,24,05,12,15.30
2016,08,24,05,13,15.30
2016,08,24,05,14,15.30
2016,08,24,05,15,15.30
2016,08,24,05,16,15.30
2016,08,24,05,17,15.30
2016,08,24,05,18,15.30
2016,08,24,05,19,15.30
2016,08,24,05,20,15.30
2016,08,24,05,21,15.30
2016,08,24,05,22,15.30
2016,08,24,05,23,15.30
2016,08,24,05,24,15.30
2016,08,24,05,25,15.30
2016,08,24,05,26,15.30
2016,08,24,05,27,15.30
2016,08,24,05,28,15.30
2016,08,24,05,29,15.30
2016,08,24,05,30,15.30
2016,08,24,05,31,15.30
2016,08,24,05,32,15.40
2016,08,24,05,33,15.40
2016,08,24,05,34,15.40
2016,08,24,05,35,15.40
2016,08,24,05,36,15.40
2016,08,24,05,37,15.40
2016,08,24,05,38,15.40
2016,08,24,05,39,15.40
2016,08,24,05,40,15.40
2016,08,24,05,41,15.40
2016,08,24,05,42,15.40
2016,08,24,05,43,15.30
2016,08,24,05,44,15.30
2016,08,24,05,45,15.30
2016,08,24,05,46,15.30
2016,08,24,05,47,15.30
2016,08,24,05,48,15.30
2016,08,24,05,49,15.20
2016,08,24,05,50,15.20
2016,08,24,05,51,15.20
2016,08,24,05,52,15.20
2016,08,24,05,53,15.20
2016,08,24,05,54,15.10
2016,08,24,05,55,15.10
2016,08,24,05,56,15.10
2016,08,24,05,57,15.10
2016,08,24,05,58,15.10
2016,08,24,05,59,15.10
2016,08,24,06,00,15.10
2016,08,24,06,01,15.10
2016,08,24,06,02,15.10
2016,08,24,06,03,15.10
2016,08,24,06,04,15.10
2016,08,24,06,05,15.10
2016,08,24,06,06,15.10
2016,08,24,06,07,15.10
2016,08,24,06,08,15.10
2016,08,24,06,09,15.10
2016,08,24,06,10,15.10
2016,08,24,06,11,15.10
2016,08,24,06,12,15.10
2016,08,24,06,13,15.00
2016,08,24,06,14,15.00
2016,08,24,06,15,15.00
2016,08,24,06,16,14.90
2016,08,24,06,17,14.90
2016,08,24,06,18,14.90
2016,08,24,06,19,14.90
2016,08,24,06,20,14.90
2016,08,24,06,21,14.90
2016,08,24,06,22,14.90
2016,08,24,06,23,14.90
2016,08,24,06,24,14.90
2016,08,24,06,25,14.90
2016,08,24,06,26,14.90
2016,08,24,06,27,14.80
2016,08,24,06,28,14.80
2016,08,24,06,29,14.80
2016,08,24,06,30,14.80
2016,08,24,06,31,14.80
2016,08,24,06,32,14.70
2016,08,24,06,33,14.70
2016,08,24,06,34,14.70
2016,08,24,06,35,14.70
2016,08,24,06,36,14.70
2016,08,24,06,37,14.60
2016,08,24,06,38,14.60
2016,08,24,06,39,14.60
2016,08,24,06,40,14.60
2016,08,24,06,41,14.70
2016,08,24,06,42,14.70
2016,08,24,06,43,14.70
2016,08,24,06,44,14.70
2016,08,24,06,45,14.70
2016,08,24,06,46,14.70
2016,08,24,06,47,14.70
2016,08,24,06,48,14.70
2016,08,24,06,49,14.80
2016,08,24,06,50,14.80
2016,08,24,06,51,14.80
2016,08,24,06,52,14.80
2016,08,24,06,53,14.80
2016,08,24,06,54,14.80
2016,08,24,06,55,14.80
2016,08,24,06,56,14.80
2016,08,24,06,57,14.80
2016,08,24,06,58,14.80
2016,08,24,06,59,14.80
2016,08,24,07,00,14.80
2016,08,24,07,01,14.80
2016,08,24,07,02,14.80
2016,08,24,07,03,14.80
2016,08,24,07,04,14.80
2016,08,24,07,05,14.80
2016,08,24,07,06,14.80
2016,08,24,07,07,14.80
2016,08,24,07,08,14.80
2016,08,24,07,09,14.80
2016,08,24,07,10,14.80
2016,08,24,07,11,14.80
2016,08,24,07,12,14.80
2016,08,24,07,13,14.80
2016,08,24,07,14,14.80
2016,08,24,07,15,14.80
2016,08,24,07,16,14.80
2016,08,24,07,17,14.80
2016,08,24,07,18,14.80
2016,08,24,07,19,14.90
2016,08,24,07,20,14.90
2016,08,24,07,21,14.90
2016,08,24,07,22,15.00
2016,08,24,07,23,15.00
2016,08,24,07,24,15.10
2016,08,24,07,25,15.10
2016,08,24,07,26,15.20
2016,08,24,07,27,15.20
2016,08,24,07,28,15.20
2016,08,24,07,29,15.30
2016,08,24,07,30,15.30
2016,08,24,07,31,15.30
2016,08,24,07,32,15.40
2016,08,24,07,33,15.40
2016,08,24,07,34,15.50
2016,08,24,07,35,15.50
2016,08,24,07,36,15.60
2016,08,24,07,37,15.60
2016,08,24,07,38,15.70
2016,08,24,07,39,15.70
2016,08,24,07,40,15.80
2016,08,24,07,41,15.80
2016,08,24,07,42,15.80
2016,08,24,07,43,15.90
2016,08,24,07,44,15.90
2016,08,24,07,45,15.90
2016,08,24,07,46,16.00
2016,08,24,07,47,16.00
2016,08,24,07,48,16.00
2016,08,24,07,49,16.10
2016,08,24,07,50,16.10
2016,08,24,07,51,16.10
2016,08,24,07,52,16.20
2016,08,24,07,53,16.20
2016,08,24,07,54,16.20
2016,08,24,07,55,16.20
2016,08,24,07,56,16.30
2016,08,24,07,57,16.30
2016,08,24,07,58,16.30
2016,08,24,07,59,16.30
2016,08,24,08,00,16.30
2016,08,24,08,01,16.40
2016,08,24,08,02,16.40
2016,08,24,08,03,16.40
2016,08,24,08,04,16.40
2016,08,24,08,05,16.50
2016,08,24,08,06,16.50
2016,08,24,08,07,16.60
2016,08,24,08,08,16.60
2016,08,24,08,09,16.60
2016,08,24,08,10,16.60
2016,08,24,08,11,16.70
2016,08,24,08,12,16.70
2016,08,24,08,13,16.70
2016,08,24,08,14,16.70
2016,08,24,08,15,16.70
2016,08,24,08,16,16.70
2016,08,24,08,17,16.80
2016,08,24,08,18,16.80
2016,08,24,08,19,16.80
2016,08,24,08,20,16.80
2016,08,24,08,21,16.90
2016,08,24,08,22,16.90
2016,08,24,08,23,16.90
2016,08,24,08,24,17.00
2016,08,24,08,25,17.00
2016,08,24,08,26,17.10
2016,08,24,08,27,17.10
2016,08,24,08,28,17.10
2016,08,24,08,29,17.10
2016,08,24,08,30,17.20
2016,08,24,08,31,17.20
2016,08,24,08,32,17.30
2016,08,24,08,33,17.30
2016,08,24,08,34,17.30
2016,08,24,08,35,17.40
2016,08,24,08,36,17.40
2016,08,24,08,37,17.40
2016,08,24,08,38,17.50
2016,08,24,08,39,17.50
2016,08,24,08,40,17.60
2016,08,24,08,41,17.60
2016,08,24,08,42,17.60
2016,08,24,08,43,17.70
2016,08,24,08,44,17.70
2016,08,24,08,45,17.70
2016,08,24,08,46,17.70
2016,08,24,08,47,17.70
2016,08,24,08,48,17.80
2016,08,24,08,49,17.80
2016,08,24,08,50,17.90
2016,08,24,08,51,17.90
2016,08,24,08,52,17.90
2016,08,24,08,53,18.00
2016,08,24,08,54,18.00
2016,08,24,08,55,18.10
2016,08,24,08,56,18.10
2016,08,24,08,57,18.00
2016,08,24,08,58,18.00
2016,08,24,08,59,18.00
2016,08,24,09,00,18.00
2016,08,24,09,01,18.10
2016,08,24,09,02,18.10
2016,08,24,09,03,18.00
2016,08,24,09,04,18.00
2016,08,24,09,05,18.00
2016,08,24,09,06,18.00
2016,08,24,09,07,18.10
2016,08,24,09,08,18.10
2016,08,24,09,09,18.10
2016,08,24,09,10,18.10
2016,08,24,09,11,18.10
2016,08,24,09,12,18.10
2016,08,24,09,13,18.10
2016,08,24,09,14,18.10
2016,08,24,09,15,18.00
2016,08,24,09,16,17.90
2016,08,24,09,17,17.90
2016,08,24,09,18,17.90
2016,08,24,09,19,17.80
2016,08,24,09,20,17.80
2016,08,24,09,21,17.80
2016,08,24,09,22,17.70
2016,08,24,09,23,17.70
2016,08,24,09,24,17.70
2016,08,24,09,25,17.70
2016,08,24,09,26,17.70
2016,08,24,09,27,17.70
2016,08,24,09,28,17.70
2016,08,24,09,29,17.70
2016,08,24,09,30,17.70
2016,08,24,09,31,17.70
2016,08,24,09,32,17.80
2016,08,24,09,33,17.80
2016,08,24,09,34,17.90
2016,08,24,09,35,17.90
2016,08,24,09,36,17.90
2016,08,24,09,37,17.90
2016,08,24,09,38,17.90
2016,08,24,09,39,18.00
2016,08,24,09,40,18.00
2016,08,24,09,41,18.00
2016,08,24,09,42,18.00
2016,08,24,09,43,18.00
2016,08,24,09,44,18.00
2016,08,24,09,45,18.00
2016,08,24,09,46,18.00
2016,08,24,09,47,18.00
2016,08,24,09,48,18.00
2016,08,24,09,49,18.00
2016,08,24,09,50,18.10
2016,08,24,09,51,18.10
2016,08,24,09,52,18.20
2016,08,24,09,53,18.20
2016,08,24,09,54,18.20
2016,08,24,09,55,18.30
2016,08,24,09,56,18.40
2016,08,24,09,57,18.50
2016,08,24,09,58,18.60
2016,08,24,09,59,18.70
2016,08,24,10,00,18.80
2016,08,24,10,01,18.90
2016,08,24,10,02,19.00
2016,08,24,10,03,19.00
2016,08,24,10,04,19.10
2016,08,24,10,05,19.00
2016,08,24,10,06,18.90
2016,08,24,10,07,18.90
2016,08,24,10,08,19.00
2016,08,24,10,09,19.00
2016,08,24,10,10,19.00
2016,08,24,10,11,19.10
2016,08,24,10,12,19.10
2016,08,24,10,13,19.10
2016,08,24,10,14,19.20
2016,08,24,10,15,19.20
2016,08,24,10,16,19.20
2016,08,24,10,17,19.30
2016,08,24,10,18,19.30
2016,08,24,10,19,19.30
2016,08,24,10,20,19.40
2016,08,24,10,21,19.40
2016,08,24,10,22,19.40
2016,08,24,10,23,19.50
2016,08,24,10,24,19.50
2016,08,24,10,25,19.60
2016,08,24,10,26,19.50
2016,08,24,10,27,19.50
2016,08,24,10,28,19.50
2016,08,24,10,29,19.60
2016,08,24,10,30,19.60
2016,08,24,10,31,19.60
2016,08,24,10,32,19.70
2016,08,24,10,33,19.70
2016,08,24,10,34,19.70
2016,08,24,10,35,19.70
2016,08,24,10,36,19.70
2016,08,24,10,37,19.80
2016,08,24,10,38,19.80
2016,08,24,10,39,19.90
2016,08,24,10,40,20.00
2016,08,24,10,41,20.10
2016,08,24,10,42,20.20
2016,08,24,10,43,20.20
2016,08,24,10,44,20.20
2016,08,24,10,45,20.30
2016,08,24,10,46,20.30
2016,08,24,10,47,20.40
2016,08,24,10,48,20.40
2016,08,24,10,49,20.40
2016,08,24,10,50,20.40
2016,08,24,10,51,20.50
2016,08,24,10,52,20.60
2016,08,24,10,53,20.60
2016,08,24,10,54,20.70
2016,08,24,10,55,20.70
2016,08,24,10,56,20.70
2016,08,24,10,57,20.70
2016,08,24,10,58,20.70
2016,08,24,10,59,20.80
2016,08,24,11,00,20.80
2016,08,24,11,01,20.90
2016,08,24,11,02,21.00
2016,08,24,11,03,21.00
2016,08,24,11,04,21.10
2016,08,24,11,05,21.10
2016,08,24,11,06,21.20
2016,08,24,11,07,21.30
2016,08,24,11,08,21.30
2016,08,24,11,09,21.40
2016,08,24,11,10,21.40
2016,08,24,11,11,21.50
2016,08,24,11,12,21.60
2016,08,24,11,13,21.70
2016,08,24,11,14,21.80
2016,08,24,11,15,21.90
2016,08,24,11,16,22.00
2016,08,24,11,17,22.10
2016,08,24,11,18,22.20
2016,08,24,11,19,22.30
2016,08,24,11,20,22.30
2016,08,24,11,21,22.30
2016,08,24,11,22,22.40
2016,08,24,11,23,22.40
2016,08,24,11,24,22.50
2016,08,24,11,25,22.60
2016,08,24,11,26,22.70
2016,08,24,11,27,22.80
2016,08,24,11,28,22.80
2016,08,24,11,29,22.90
2016,08,24,11,30,22.90
2016,08,24,11,31,23.00
2016,08,24,11,32,23.00
2016,08,24,11,33,23.10
2016,08,24,11,34,23.10
2016,08,24,11,35,23.20
2016,08,24,11,36,23.20
2016,08,24,11,37,23.30
2016,08,24,11,38,23.40
2016,08,24,11,39,23.40
2016,08,24,11,40,23.50
2016,08,24,11,41,23.60
2016,08,24,11,42,23.60
2016,08,24,11,43,23.70
2016,08,24,11,44,23.70
2016,08,24,11,45,23.70
2016,08,24,11,46,23.70
2016,08,24,11,47,23.60
2016,08,24,11,48,23.60
2016,08,24,11,49,23.60
2016,08,24,11,50,23.70
2016,08,24,11,51,23.70
2016,08,24,11,52,23.80
2016,08,24,11,53,23.90
2016,08,24,11,54,24.00
2016,08,24,11,55,24.10
2016,08,24,11,56,24.20
2016,08,24,11,57,24.20
2016,08,24,11,58,24.30
2016,08,24,11,59,24.30
2016,08,24,12,00,24.30
2016,08,24,12,01,24.30
2016,08,24,12,02,24.30
2016,08,24,12,03,24.30
2016,08,24,12,04,24.30
2016,08,24,12,05,24.30
2016,08,24,12,06,24.30
2016,08,24,12,07,24.20
2016,08,24,12,08,24.20
2016,08,24,12,09,24.20
2016,08,24,12,10,24.10
2016,08,24,12,11,24.10
2016,08,24,12,12,24.10
2016,08,24,12,13,24.10
2016,08,24,12,14,24.10
2016,08,24,12,15,24.10
2016,08,24,12,16,24.10
2016,08,24,12,17,24.10
2016,08,24,12,18,24.10
2016,08,24,12,19,24.10
2016,08,24,12,20,24.20
2016,08,24,12,21,24.20
2016,08,24,12,22,24.30
2016,08,24,12,23,24.30
2016,08,24,12,24,24.30
2016,08,24,12,25,24.30
2016,08,24,12,26,24.40
2016,08,24,12,27,24.40
2016,08,24,12,28,24.30
2016,08,24,12,29,24.30
2016,08,24,12,30,24.30
2016,08,24,12,31,24.30
2016,08,24,12,32,24.30
2016,08,24,12,33,24.30
2016,08,24,12,34,24.30
2016,08,24,12,35,24.30
2016,08,24,12,36,24.30
2016,08,24,12,37,24.20
2016,08,24,12,38,24.20
2016,08,24,12,39,24.10
2016,08,24,12,40,24.10
2016,08,24,12,41,24.10
2016,08,24,12,42,24.10
2016,08,24,12,43,24.20
2016,08,24,12,44,24.30
2016,08,24,12,45,24.30
2016,08,24,12,46,24.40
2016,08,24,12,47,24.50
2016,08,24,12,48,24.50
2016,08,24,12,49,24.50
2016,08,24,12,50,24.50
2016,08,24,12,51,24.60
2016,08,24,12,52,24.60
2016,08,24,12,53,24.60
2016,08,24,12,54,24.60
2016,08,24,12,55,24.60
2016,08,24,12,56,24.60
2016,08,24,12,57,24.60
2016,08,24,12,58,24.70
2016,08,24,12,59,24.70
2016,08,24,13,00,24.80
2016,08,24,13,01,24.80
2016,08,24,13,02,24.90
2016,08,24,13,03,25.00
2016,08,24,13,04,25.10
2016,08,24,13,05,25.10
2016,08,24,13,06,25.20
2016,08,24,13,07,25.20
2016,08,24,13,08,25.30
2016,08,24,13,09,25.30
2016,08,24,13,10,25.30
2016,08,24,13,11,25.30
2016,08,24,13,12,25.30
2016,08,24,13,13,25.30
2016,08,24,13,14,25.30
2016,08,24,13,15,25.30
2016,08,24,13,16,25.30
2016,08,24,13,17,25.20
2016,08,24,13,18,25.20
2016,08,24,13,19,25.10
2016,08,24,13,20,25.00
2016,08,24,13,21,24.90
2016,08,24,13,22,24.80
2016,08,24,13,23,24.80
2016,08,24,13,24,24.80
2016,08,24,13,25,24.80
2016,08,24,13,26,24.90
2016,08,24,13,27,24.90
2016,08,24,13,28,25.00
2016,08,24,13,29,25.10
2016,08,24,13,30,25.10
2016,08,24,13,31,25.00
2016,08,24,13,32,25.00
2016,08,24,13,33,25.00
2016,08,24,13,34,25.00
2016,08,24,13,35,25.00
2016,08,24,13,36,25.00
2016,08,24,13,37,25.00
2016,08,24,13,38,24.90
2016,08,24,13,39,24.90
2016,08,24,13,40,24.80
2016,08,24,13,41,24.80
2016,08,24,13,42,24.80
2016,08,24,13,43,24.80
2016,08,24,13,44,24.70
2016,08,24,13,45,24.60
2016,08,24,13,46,24.60
2016,08,24,13,47,24.60
2016,08,24,13,48,24.60
2016,08,24,13,49,24.60
2016,08,24,13,50,24.70
2016,08,24,13,51,24.80
2016,08,24,13,52,24.80
2016,08,24,13,53,24.90
2016,08,24,13,54,25.00
2016,08,24,13,55,25.00
2016,08,24,13,56,25.10
2016,08,24,13,57,25.10
2016,08,24,13,58,25.20
2016,08,24,13,59,25.30
2016,08,24,14,00,25.30
2016,08,24,14,01,25.30
2016,08,24,14,02,25.30
2016,08,24,14,03,25.30
2016,08,24,14,04,25.30
2016,08,24,14,05,25.40
2016,08,24,14,06,25.40
2016,08,24,14,07,25.50
2016,08,24,14,08,25.60
2016,08,24,14,09,25.60
2016,08,24,14,10,25.60
2016,08,24,14,11,25.70
2016,08,24,14,12,25.80
2016,08,24,14,13,25.80
2016,08,24,14,14,25.80
2016,08,24,14,15,25.90
2016,08,24,14,16,25.90
2016,08,24,14,17,25.90
2016,08,24,14,18,26.00
2016,08,24,14,19,26.10
2016,08,24,14,20,26.10
2016,08,24,14,21,26.10
2016,08,24,14,22,26.20
2016,08,24,14,23,26.30
2016,08,24,14,24,26.40
2016,08,24,14,25,26.50
2016,08,24,14,26,26.60
2016,08,24,14,27,26.70
2016,08,24,14,28,26.70
2016,08,24,14,29,26.80
2016,08,24,14,30,26.80
2016,08,24,14,31,26.90
2016,08,24,14,32,26.90
2016,08,24,14,33,27.00
2016,08,24,14,34,27.00
2016,08,24,14,35,27.00
2016,08,24,14,36,27.00
2016,08,24,14,37,27.00
2016,08,24,14,38,27.00
2016,08,24,14,39,27.10
2016,08,24,14,40,27.10
2016,08,24,14,41,27.10
2016,08,24,14,42,27.10
2016,08,24,14,43,27.10
2016,08,24,14,44,27.10
2016,08,24,14,45,27.00
2016,08,24,14,46,27.00
2016,08,24,14,47,27.00
2016,08,24,14,48,26.90
2016,08,24,14,49,26.90
2016,08,24,14,50,26.90
2016,08,24,14,51,26.90
2016,08,24,14,52,26.80
2016,08,24,14,53,26.80
2016,08,24,14,54,26.90
2016,08,24,14,55,26.90
2016,08,24,14,56,26.90
2016,08,24,14,57,26.90
2016,08,24,14,58,26.90
2016,08,24,14,59,26.90
2016,08,24,15,00,26.80
2016,08,24,15,01,26.80
2016,08,24,15,02,26.80
2016,08,24,15,03,26.80
2016,08,24,15,04,26.90
2016,08,24,15,05,26.90
2016,08,24,15,06,27.00
2016,08,24,15,07,27.10
2016,08,24,15,08,27.20
2016,08,24,15,09,27.30
2016,08,24,15,10,27.30
2016,08,24,15,11,27.30
2016,08,24,15,12,27.40
2016,08,24,15,13,27.40
2016,08,24,15,14,27.50
2016,08,24,15,15,27.60
2016,08,24,15,16,27.60
2016,08,24,15,17,27.70
2016,08,24,15,18,27.80
2016,08,24,15,19,27.80
2016,08,24,15,20,27.80
2016,08,24,15,21,27.80
2016,08,24,15,22,27.70
2016,08,24,15,23,27.70
2016,08,24,15,24,27.70
2016,08,24,15,25,27.80
2016,08,24,15,26,27.80
2016,08,24,15,27,27.80
2016,08,24,15,28,27.90
2016,08,24,15,29,28.00
2016,08,24,15,30,28.00
2016,08,24,15,31,28.10
2016,08,24,15,32,28.10
2016,08,24,15,33,28.10
2016,08,24,15,34,28.10
2016,08,24,15,35,28.20
2016,08,24,15,36,28.20
2016,08,24,15,37,28.20
2016,08,24,15,38,28.30
2016,08,24,15,39,28.30
2016,08,24,15,40,28.40
2016,08,24,15,41,28.40
2016,08,24,15,42,28.50
2016,08,24,15,43,28.50
2016,08,24,15,44,28.50
2016,08,24,15,45,28.50
2016,08,24,15,46,28.40
2016,08,24,15,47,28.40
2016,08,24,15,48,28.40
2016,08,24,15,49,28.40
2016,08,24,15,50,28.50
2016,08,24,15,51,28.50
2016,08,24,15,52,28.50
2016,08,24,15,53,28.40
2016,08,24,15,54,28.40
2016,08,24,15,55,28.40
2016,08,24,15,56,28.40
2016,08,24,15,57,28.40
2016,08,24,15,58,28.30
2016,08,24,15,59,28.30
2016,08,24,16,00,28.40
2016,08,24,16,01,28.40
2016,08,24,16,02,28.40
2016,08,24,16,03,28.40
2016,08,24,16,04,28.40
2016,08,24,16,05,28.40
2016,08,24,16,06,28.40
2016,08,24,16,07,28.50
2016,08,24,16,08,28.60
2016,08,24,16,09,28.60
2016,08,24,16,10,28.70
2016,08,24,16,11,28.80
2016,08,24,16,12,28.90
2016,08,24,16,13,28.90
2016,08,24,16,14,29.00
2016,08,24,16,15,29.10
2016,08,24,16,16,29.20
2016,08,24,16,17,29.20
2016,08,24,16,18,29.30
2016,08,24,16,19,29.30
2016,08,24,16,20,29.30
2016,08,24,16,21,29.40
2016,08,24,16,22,29.40
2016,08,24,16,23,29.40
2016,08,24,16,24,29.40
2016,08,24,16,25,29.40
2016,08,24,16,26,29.40
2016,08,24,16,27,29.40
2016,08,24,16,28,29.40
2016,08,24,16,29,29.40
2016,08,24,16,30,29.40
2016,08,24,16,31,29.30
2016,08,24,16,32,29.30
2016,08,24,16,33,29.30
2016,08,24,16,34,29.30
2016,08,24,16,35,29.30
2016,08,24,16,36,29.30
2016,08,24,16,37,29.30
2016,08,24,16,38,29.30
2016,08,24,16,39,29.30
2016,08,24,16,40,29.30
2016,08,24,16,41,29.30
2016,08,24,16,42,29.40
2016,08,24,16,43,29.40
2016,08,24,16,44,29.40
2016,08,24,16,45,29.50
2016,08,24,16,46,29.50
2016,08,24,16,47,29.50
2016,08,24,16,48,29.50
2016,08,24,16,49,29.50
2016,08,24,16,50,29.50
2016,08,24,16,51,29.60
2016,08,24,16,52,29.60
2016,08,24,16,53,29.60
2016,08,24,16,54,29.60
2016,08,24,16,55,29.60
2016,08,24,16,56,29.60
2016,08,24,16,57,29.60
2016,08,24,16,58,29.70
2016,08,24,16,59,29.70
2016,08,24,17,00,29.70
2016,08,24,17,01,29.70
2016,08,24,17,02,29.80
2016,08,24,17,03,29.80
2016,08,24,17,04,29.90
2016,08,24,17,05,30.00
2016,08,24,17,06,30.10
2016,08,24,17,07,30.20
2016,08,24,17,08,30.20
2016,08,24,17,09,30.30
2016,08,24,17,10,30.40
2016,08,24,17,11,30.40
2016,08,24,17,12,30.50
2016,08,24,17,13,30.70
2016,08,24,17,14,30.70
2016,08,24,17,15,30.80
2016,08,24,17,16,30.80
2016,08,24,17,17,30.80
2016,08,24,17,18,30.80
2016,08,24,17,19,30.80